Simultaneous Nadir Overpasses (SNOs) Predictions

Prediction of SNOs between AQUA and NPP Satellite Orbit:

Table of predicted SNOs for the next 14.0 days since TLE Epoch: 3/1/2019
Index Date (AQUA) Time (AQUA) Lat,Lon (AQUA) SZA (AQUA ) Date (NPP) Time (NPP) Lat,Lon (NPP) SZA (NPP ) Distance(km) Time Diff (sec)
1 03/03/2019 14:05:21 76.15,-151.70 104.25 03/03/2019 14:04:34 76.16,-151.64 104.28 1.91 47
2 03/03/2019 14:54:36 -76.78, 18.04 76.50 03/03/2019 14:55:06 -76.77, 17.93 76.50 2.91 30
3 03/06/2019 06:21:48 76.24, -35.54 103.11 03/06/2019 06:21:25 76.23, -35.60 103.15 1.50 23
4 03/06/2019 07:10:56 -77.19, 135.45 78.04 03/06/2019 07:11:49 -77.19, 135.45 78.08 0.20 53
5 03/08/2019 21:51:42 -67.26,-103.90 68.49 03/08/2019 21:50:28 -67.44,-104.85 68.28 45.54 74
6 03/08/2019 22:38:07 76.75, 82.08 101.46 03/08/2019 22:38:07 76.76, 82.12 101.44 1.18 0
7 03/08/2019 23:25:38 -81.14, -80.13 85.14 03/08/2019 23:26:52 -80.83, -79.44 85.30 36.88 74
8 03/11/2019 14:05:29 -75.92, 27.59 78.63 03/11/2019 14:04:35 -75.92, 27.56 78.58 0.78 54
9 03/11/2019 14:54:35 76.83,-161.76 100.30 03/11/2019 14:54:59 76.83,-161.83 100.29 1.94 24
10 03/14/2019 06:21:47 -76.48, 145.27 80.35 03/14/2019 06:21:16 -76.49, 145.35 80.35 2.36 31




NCC Satellite Simultaneous Nadir Overpasses (SNOs) Prediction Service
